Weather History for Wharton, TX

Change the Weather History Date:

Sunday, July 7, 2013

  Actual Average (KPSX) Record (KPSX)
Temperature  
Mean Temperature 82 °F -  
Max Temperature 91 °F 89 °F 97 °F (1947)
Min Temperature 73 °F 76 °F 68 °F (1972)
Cooling Degree Days 17    
Growing Degree Days 32 (Base 50)    
Moisture  
Dew Point 73 °F    
Average Humidity 79    
Maximum Humidity 96    
Minimum Humidity 49    
Precipitation  
Precipitation 0.05 in - - ()
Sea Level Pressure  
Sea Level Pressure 29.95 in    
Wind  
Wind Speed 5 mph (ESE)    
Max Wind Speed 22 mph    
Max Gust Speed 25 mph    
Visibility 10 miles    
Events Rain    
Averages and records for this station are not official NWS values.
T = Trace of Precipitation, MM = Missing Value Source: NWS Daily Summary

Daily Weather History Graph

Daily Weather History Graph

Search for Another Location

Airport:

Trip Planner

Search our weather history database for the weather conditions in past years. The results will help you decide how hot, cold, wet, or windy it might be!

Date:

Astronomy

Jul. 07, 2013 Rise Set
Actual Time 6:31 AM CDT 8:27 PM CDT
Civil Twilight 6:04 AM CDT 8:54 PM CDT
Nautical Twilight 5:32 AM CDT 9:26 PM CDT
Astronomical Twilight 4:57 AM CDT 10:01 PM CDT
Moon 6:03 AM CDT (7/7) 7:58 PM CDT (7/7)
Length of Visible Light 14h 49m
Length of Day
13h 55m
Waning Crescent, 0% of the Moon is Illuminated
Jul 7
Waning Crescent
Jul 8
New
Jul 15
First Quarter
Jul 22
Full
Jul 29
Last Quarter

Hourly Weather History & Observations

Time (CDT) Temp. Heat Index Dew Point Humidity Pressure Visibility Wind Dir Wind Speed Gust Speed Precip Events Conditions
12:15 AM 75.6 °F - 72.1 °F 89% 29.91 in 10.0 mi Calm Calm - N/A   Clear
12:35 AM 74.7 °F - 71.8 °F 91% 29.92 in 10.0 mi Calm Calm - N/A   Clear
12:55 AM 74.7 °F - 72.0 °F 91% 29.91 in 10.0 mi Calm Calm - N/A   Clear
1:15 AM 75.2 °F - 72.1 °F 90% 29.91 in 10.0 mi East 3.5 mph - N/A   Clear
1:35 AM 74.7 °F - 72.1 °F 92% 29.90 in 10.0 mi ENE 3.5 mph - N/A   Clear
1:55 AM 75.2 °F - 72.7 °F 92% 29.90 in 10.0 mi East 3.5 mph - N/A   Clear
2:15 AM 74.8 °F - 72.5 °F 92% 29.91 in 10.0 mi East 4.6 mph - N/A   Clear
2:35 AM 74.8 °F - 72.7 °F 93% 29.91 in 10.0 mi East 3.5 mph - N/A   Clear
2:55 AM 74.7 °F - 72.7 °F 94% 29.90 in 10.0 mi East 3.5 mph - N/A   Clear
3:15 AM 74.3 °F - 72.5 °F 94% 29.91 in 10.0 mi ENE 3.5 mph - N/A   Clear
3:35 AM 74.5 °F - 72.9 °F 95% 29.91 in 10.0 mi Calm Calm - N/A   Clear
3:55 AM 74.5 °F - 72.9 °F 95% 29.91 in 10.0 mi Calm Calm - N/A   Clear
4:15 AM 74.5 °F - 72.9 °F 95% 29.91 in 10.0 mi Calm Calm - N/A   Scattered Clouds
4:35 AM 74.3 °F - 72.9 °F 95% 29.91 in 10.0 mi Calm Calm - N/A   Scattered Clouds
4:55 AM 74.3 °F - 72.9 °F 95% 29.91 in 10.0 mi Calm Calm - N/A   Scattered Clouds
5:15 AM 74.3 °F - 72.9 °F 95% 29.92 in 10.0 mi Calm Calm - N/A   Clear
5:35 AM 74.3 °F - 72.9 °F 95% 29.92 in 7.0 mi Calm Calm - N/A   Clear
5:55 AM 73.6 °F - 72.5 °F 96% 29.93 in 7.0 mi Calm Calm - N/A   Clear
6:15 AM 73.9 °F - 72.9 °F 96% 29.93 in 10.0 mi Calm Calm - N/A   Scattered Clouds
6:35 AM 73.8 °F - 72.7 °F 96% 29.93 in 7.0 mi Calm Calm - N/A   Mostly Cloudy
6:55 AM 74.5 °F - 73.4 °F 96% 29.94 in 7.0 mi Calm Calm - N/A   Mostly Cloudy
7:15 AM 75.4 °F - 74.1 °F 96% 29.94 in 7.0 mi Calm Calm - N/A   Mostly Cloudy
7:35 AM 75.9 °F - 74.5 °F 95% 29.95 in 10.0 mi Calm Calm - N/A   Mostly Cloudy
7:55 AM 76.3 °F - 74.5 °F 94% 29.96 in 10.0 mi Calm Calm - N/A   Mostly Cloudy
8:15 AM 77.4 °F - 75.2 °F 93% 29.96 in 10.0 mi ENE 3.5 mph - N/A   Overcast
8:35 AM 79.5 °F - 75.6 °F 88% 29.96 in 10.0 mi East 5.8 mph - N/A   Mostly Cloudy
8:55 AM 83.3 °F 90.8 °F 75.0 °F 76% 29.97 in 10.0 mi ENE 6.9 mph - N/A   Scattered Clouds
9:15 AM 82.2 °F 89.1 °F 75.2 °F 79% 29.98 in 10.0 mi East 5.8 mph - N/A   Scattered Clouds
9:35 AM 82.6 °F 89.7 °F 75.0 °F 78% 29.98 in 10.0 mi East 8.1 mph - N/A   Scattered Clouds
9:55 AM 85.5 °F 93.8 °F 74.7 °F 70% 29.97 in 10.0 mi East 4.6 mph - N/A   Scattered Clouds
10:15 AM 86.5 °F 93.8 °F 72.9 °F 64% 29.97 in 10.0 mi SE 4.6 mph - N/A   Scattered Clouds
10:35 AM 85.1 °F 92.2 °F 73.6 °F 68% 29.97 in 10.0 mi SE 4.6 mph - N/A   Mostly Cloudy
10:55 AM 85.8 °F 93.0 °F 73.4 °F 66% 29.97 in 10.0 mi SSE 3.5 mph - N/A   Mostly Cloudy
11:15 AM 89.2 °F 96.4 °F 72.3 °F 57% 29.96 in 10.0 mi East 4.6 mph - N/A   Mostly Cloudy
11:35 AM 89.8 °F 96.5 °F 71.4 °F 55% 29.96 in 10.0 mi ESE 4.6 mph - N/A   Scattered Clouds
11:55 AM 89.4 °F 96.3 °F 71.6 °F 56% 29.96 in 10.0 mi East 8.1 mph - N/A   Scattered Clouds
12:15 PM 90.0 °F 97.4 °F 72.1 °F 56% 29.96 in 10.0 mi ESE 12.7 mph - N/A   Mostly Cloudy
12:35 PM 91.4 °F 97.8 °F 71.1 °F 51% 29.96 in 10.0 mi East 12.7 mph 17.3 mph N/A   Scattered Clouds
12:55 PM 90.3 °F 97.2 °F 71.4 °F 54% 29.97 in 10.0 mi East 12.7 mph 18.4 mph N/A   Scattered Clouds
1:15 PM 91.0 °F 96.6 °F 70.2 °F 50% 29.96 in 10.0 mi ESE 13.8 mph 18.4 mph N/A   Scattered Clouds
1:35 PM 90.7 °F 95.9 °F 69.4 °F 50% 29.96 in 10.0 mi ESE 9.2 mph 18.4 mph N/A   Clear
1:55 PM 91.2 °F 97.0 °F 70.2 °F 50% 29.95 in 10.0 mi East 13.8 mph 17.3 mph N/A   Scattered Clouds
2:15 PM 91.6 °F 97.2 °F 70.2 °F 49% 29.95 in 10.0 mi East 16.1 mph 23.0 mph N/A   Scattered Clouds
2:35 PM 91.8 °F 99.7 °F 72.5 °F 53% 29.95 in 10.0 mi ESE 18.4 mph 24.2 mph N/A   Scattered Clouds
2:55 PM 91.4 °F 98.4 °F 71.6 °F 52% 29.95 in 10.0 mi ESE 16.1 mph 23.0 mph N/A   Clear
3:15 PM 91.0 °F 97.6 °F 71.4 °F 52% 29.94 in 10.0 mi ESE 16.1 mph 23.0 mph N/A   Scattered Clouds
3:35 PM 89.1 °F 96.0 °F 72.0 °F 57% 29.94 in 10.0 mi ESE 17.3 mph 24.2 mph N/A   Mostly Cloudy
3:55 PM 87.1 °F 95.4 °F 73.9 °F 65% 29.94 in 7.0 mi SE 19.6 mph 25.3 mph N/A   Mostly Cloudy
4:15 PM 88.3 °F 95.4 °F 72.5 °F 59% 29.94 in 10.0 mi SE 19.6 mph - N/A   Scattered Clouds
4:35 PM 87.4 °F 94.4 °F 72.5 °F 61% 29.94 in 10.0 mi SSE 18.4 mph 23.0 mph N/A   Scattered Clouds
4:55 PM 88.7 °F 95.7 °F 72.1 °F 58% 29.95 in 10.0 mi SSE 17.3 mph 21.9 mph N/A   Mostly Cloudy
5:15 PM 85.3 °F 91.5 °F 72.3 °F 65% 29.96 in 10.0 mi SSE 21.9 mph - N/A   Mostly Cloudy
5:35 PM 85.8 °F 92.6 °F 72.7 °F 65% 29.96 in 10.0 mi SSE 18.4 mph 23.0 mph N/A   Overcast
5:55 PM 82.2 °F 88.8 °F 74.7 °F 78% 29.96 in 5.0 mi SE 16.1 mph - 0.01 in Rain Rain
6:15 PM 79.0 °F - 75.2 °F 88% 29.97 in 5.0 mi ESE 9.2 mph - 0.04 in Rain Rain
6:35 PM 78.6 °F - 75.6 °F 90% 29.97 in 10.0 mi ESE 6.9 mph - 0.04 in   Mostly Cloudy
6:55 PM 79.0 °F - 75.7 °F 90% 29.96 in 10.0 mi SE 9.2 mph - 0.04 in   Scattered Clouds
7:15 PM 79.7 °F - 74.3 °F 83% 29.97 in 10.0 mi SSE 9.2 mph - N/A   Light Drizzle
7:35 PM 79.7 °F - 72.7 °F 79% 29.96 in 10.0 mi SE 10.4 mph - N/A   Scattered Clouds
7:55 PM 79.7 °F - 73.4 °F 81% 29.96 in 10.0 mi SSE 10.4 mph - N/A   Scattered Clouds
8:15 PM 79.3 °F - 73.0 °F 81% 29.96 in 10.0 mi SSE 9.2 mph - N/A   Clear
8:35 PM 78.3 °F - 72.7 °F 83% 29.96 in 10.0 mi SE 6.9 mph - N/A   Clear
8:55 PM 77.4 °F - 72.9 °F 86% 29.96 in 10.0 mi SE 4.6 mph - N/A   Clear
9:15 PM 77.5 °F - 72.9 °F 85% 29.96 in 10.0 mi ESE 4.6 mph - N/A   Clear
9:35 PM 77.2 °F - 73.0 °F 87% 29.97 in 10.0 mi East 4.6 mph - N/A   Clear
9:55 PM 77.4 °F - 73.0 °F 86% 29.98 in 10.0 mi East 4.6 mph - N/A   Clear
10:15 PM 77.0 °F - 73.4 °F 89% 29.99 in 10.0 mi ESE 5.8 mph - N/A   Clear
10:35 PM 76.3 °F - 73.4 °F 91% 30.00 in 10.0 mi ESE 4.6 mph - N/A   Clear
10:55 PM 76.3 °F - 73.4 °F 91% 30.00 in 10.0 mi ESE 6.9 mph - N/A   Clear
11:15 PM 76.3 °F - 73.4 °F 91% 30.01 in 10.0 mi ESE 5.8 mph - N/A   Clear
11:35 PM 76.1 °F - 73.4 °F 91% 30.01 in 10.0 mi ESE 4.6 mph - N/A   Clear
11:55 PM 76.1 °F - 73.6 °F 92% 30.01 in 10.0 mi SE 4.6 mph - N/A   Clear